Location: Orange
(33.2833°S, 149.1000°E)
Time: 13:26:23
(UTC+11:00)

Envisat - Pass Details

Date: 12 December 2021
Orbit: 764 x 766 km, 98.2° (Epoch: 27 January)

Event Time Altitude Azimuth Distance (km) Brightness Sun altitude
Rises 05:14:28 0° 14° (NNE) 3,215 6.0 -6.8°
Reaches altitude 10° 05:16:45 10° 14° (NNE) 2,297 5.3 -6.4°
Maximum altitude 05:21:49 88° 100° (E) 776 3.1 -5.5°
Drops below altitude 10° 05:26:58 10° 192° (SSW) 2,326 5.8 -4.6°
Sets 05:29:18 0° 191° (SSW) 3,260 6.5 -4.2°
